Погода в Закупном

Украина / Хмельницкая область     49°07′10″N   26°20′15″E
темп.,
°C
ветер,
м/с
пор.,
м/с
влажн.,
%
обл.,
%
осадки,
мм/ч
давл.,
гПа
погр.,
м
16 апреля, пт
пт1600:00+2сз6987100 0.0 1016650
03:00+1зсз5995100 0.0 1016659
06:00+2зсз61290100 0.0 1015625
09:00+1зсз81392100 0.4 1015641
12:00+3зсз71394100 1.1 1016727
15:00+4зсз61190100 2.4 1016801
18:00+4зсз51293100 0.1 1017777
21:00+4з51287100 0.2 1017915
17 апреля, сб
сб1700:00+4з51295100 0.1 1018873
03:00+4з51289100 0.1 1018699
06:00+3з4109699 0.1 1019681
09:00+4з41093100 0.3 1020572
12:00+6зсз478295 0.1 1020774
15:00+8сз346894 0.1 1020988
18:00+7с447812 0.0 1020437
21:00+3ссв349661 0.0 1021133
18 апреля, вс
вс1800:00+3ссв3492100 0.0 1021278
03:00+3ссв3591100 0.0 1020211
06:00+3св2391100 0.0 1020187
09:00+5св3481100 0.0 1020297
12:00+10в336158 0.0 1019860
15:00+12в3448100 0.1 10171758
18:00+12всв3456100 0.0 1016690
21:00+9всв3867100 0.1 1017174
19 апреля, пн
пн1900:00+7ю3579100 0.1 1018230
03:00+7всв1283100 0.1 101742
06:00+7св3587100 0.2 1016193
09:00+9всв487893 0.4 1015939
12:00+11вюв5765100 0.3 10141431
15:00+12в5762100 0.6 10121382
18:00+11всв576598 0.9 10111172
21:00+9св71172100 1.2 1010778
20 апреля, вт
вт2000:00+7ссв61280100 0.0 1010525
03:00+5с71382100 0.0 1008538
06:00+5с71387100 0.0 1006615
09:00+5ссз81289100 0.6 10061056
12:00+6ссз81193100 0.8 1005956
15:00+6ссз81288100 1.0 1005910
18:00+8ссз81379100 0.3 10051224
21:00+7сз71381100 0.4 1007811